Clermont County, Batavia, OH

4:41 PM EDT on May 29, 2017 (GMT -0400)
Clermont County, Batavia

Weather History for KI69 - May, 2013

Change the Weather History Date:

Friday, May 31, 2013

  Actual Average (KLUK) Record (KLUK)
Temperature  
Mean Temperature 76 °F -  
Max Temperature 84 °F 78 °F 93 °F (1988)
Min Temperature 68 °F 58 °F 41 °F (1961)
Cooling Degree Days 11    
Growing Degree Days 26 (Base 50)    
Moisture  
Dew Point 65 °F    
Average Humidity 74    
Maximum Humidity 100    
Minimum Humidity 48    
Precipitation  
Precipitation 0.41 in - - ()
Sea Level Pressure  
Sea Level Pressure 30.04 in    
Wind  
Wind Speed 6 mph ()    
Max Wind Speed 18 mph    
Max Gust Speed 36 mph    
Visibility 9.5 miles    
Events      
Averages and records for this station are not official NWS values.
T = Trace of Precipitation, MM = Missing Value Source: Averaged Metar Reports

Daily Weather History Graph

Daily Weather History Graph

Search for Another Location

Airport or City:

Trip Planner

Search our weather history database for the weather conditions in past years. The results will help you decide how hot, cold, wet, or windy it might be!

Date:

Astronomy

May. 31, 2013 Rise Set
Actual Time 6:13 AM EDT 8:56 PM EDT
Civil Twilight 5:41 AM EDT 9:27 PM EDT
Nautical Twilight 5:02 AM EDT 10:07 PM EDT
Astronomical Twilight 4:17 AM EDT 10:52 PM EDT
Moon 1:32 AM EDT (5/31) 1:24 PM EDT (5/31)
Length of Visible Light 15h 46m
Length of Day
14h 43m
Waning Gibbous, 51% of the Moon is Illuminated
May 31
Waning Gibbous
May 31
Last Quarter
Jun 8
New
Jun 16
First Quarter
Jun 23
Full

Hourly Weather History & Observations

Time (EDT) Temp. Heat Index Dew Point Humidity Pressure Visibility Wind Dir Wind Speed Gust Speed Precip Events Conditions
12:13 AM 75.2 °F - 62.6 °F 65% 30.08 in 10.0 mi Calm Calm - N/A   Clear
12:34 AM 75.2 °F - 60.8 °F 61% 30.09 in 10.0 mi SSW 4.6 mph - N/A   Clear
12:53 AM 75.2 °F - 60.8 °F 61% 30.09 in 10.0 mi SSW 4.6 mph - N/A   Clear
1:13 AM 75.2 °F - 60.8 °F 61% 30.10 in 10.0 mi SSW 4.6 mph - N/A   Clear
1:34 AM 73.4 °F - 60.8 °F 65% 30.09 in 10.0 mi South 4.6 mph - N/A   Clear
1:54 AM 73.4 °F - 60.8 °F 65% 30.09 in 10.0 mi South 5.8 mph - N/A   Clear
2:13 AM 73.4 °F - 60.8 °F 65% 30.08 in 10.0 mi South 4.6 mph - N/A   Clear
2:34 AM 73.4 °F - 60.8 °F 65% 30.08 in 10.0 mi South 4.6 mph - N/A   Clear
2:53 AM 73.4 °F - 60.8 °F 65% 30.08 in 10.0 mi South 4.6 mph - N/A   Clear
3:13 AM 73.4 °F - 62.6 °F 69% 30.08 in 10.0 mi South 3.5 mph - N/A   Clear
3:34 AM 71.6 °F - 62.6 °F 73% 30.07 in 10.0 mi SSW 4.6 mph - N/A   Clear
3:53 AM 71.6 °F - 62.6 °F 73% 30.07 in 10.0 mi SSW 5.8 mph - N/A   Clear
4:13 AM 71.6 °F - 62.6 °F 73% 30.06 in 10.0 mi SSW 6.9 mph - N/A   Clear
4:34 AM 71.6 °F - 62.6 °F 73% 30.05 in 10.0 mi South 5.8 mph - N/A   Clear
4:53 AM 71.6 °F - 62.6 °F 73% 30.06 in 10.0 mi South 5.8 mph - N/A   Clear
5:13 AM 71.6 °F - 62.6 °F 73% 30.05 in 10.0 mi SSE 4.6 mph - N/A   Clear
5:34 AM 69.8 °F - 62.6 °F 78% 30.06 in 10.0 mi Calm Calm - N/A   Clear
5:53 AM 69.8 °F - 62.6 °F 78% 30.06 in 10.0 mi South 4.6 mph - N/A   Scattered Clouds
6:13 AM 69.8 °F - 62.6 °F 78% 30.07 in 10.0 mi South 4.6 mph - N/A   Scattered Clouds
6:34 AM 69.8 °F - 62.6 °F 78% 30.07 in 10.0 mi South 4.6 mph - N/A   Clear
6:53 AM 71.6 °F - 62.6 °F 73% 30.07 in 10.0 mi South 5.8 mph - N/A   Mostly Cloudy
7:13 AM 71.6 °F - 62.6 °F 73% 30.07 in 10.0 mi South 6.9 mph - N/A   Overcast
7:34 AM 71.6 °F - 62.6 °F 73% 30.07 in 10.0 mi South 8.1 mph - N/A   Mostly Cloudy
7:53 AM 73.4 °F - 62.6 °F 69% 30.08 in 10.0 mi South 8.1 mph - N/A   Mostly Cloudy
8:13 AM 73.4 °F - 62.6 °F 69% 30.08 in 10.0 mi South 8.1 mph - N/A   Mostly Cloudy
8:34 AM 73.4 °F - 62.6 °F 69% 30.08 in 10.0 mi South 8.1 mph - N/A   Mostly Cloudy
8:53 AM 75.2 °F - 62.6 °F 65% 30.08 in 10.0 mi SSW 8.1 mph - N/A   Mostly Cloudy
9:13 AM 75.2 °F - 62.6 °F 65% 30.08 in 10.0 mi SSW 13.8 mph 19.6 mph N/A   Overcast
9:34 AM 75.2 °F - 62.6 °F 65% 30.08 in 10.0 mi SSW 10.4 mph 19.6 mph N/A   Mostly Cloudy
9:53 AM 75.2 °F - 62.6 °F 65% 30.08 in 10.0 mi SSW 8.1 mph 17.3 mph N/A   Mostly Cloudy
10:14 AM 78.8 °F - 62.6 °F 57% 30.08 in 10.0 mi South 9.2 mph 17.3 mph N/A   Scattered Clouds
10:33 AM 80.6 °F 81.8 °F 62.6 °F 54% 30.07 in 10.0 mi SSW 13.8 mph 18.4 mph N/A   Scattered Clouds
10:53 AM 80.6 °F 82.3 °F 64.4 °F 58% 30.07 in 10.0 mi SSW 13.8 mph 19.6 mph N/A   Clear
11:14 AM 82.4 °F 83.9 °F 64.4 °F 54% 30.07 in 10.0 mi SW 12.7 mph 23.0 mph N/A   Clear
11:34 AM 82.4 °F 83.4 °F 62.6 °F 51% 30.07 in 10.0 mi SSW 13.8 mph 20.7 mph N/A   Mostly Cloudy
11:53 AM 82.4 °F 83.9 °F 64.4 °F 54% 30.06 in 10.0 mi SSW 10.4 mph 20.7 mph N/A   Overcast
12:14 PM 84.2 °F 85.0 °F 62.6 °F 48% 30.05 in 10.0 mi SSW 11.5 mph 23.0 mph N/A   Mostly Cloudy
12:33 PM 82.4 °F 83.4 °F 62.6 °F 51% 30.05 in 10.0 mi SSW 9.2 mph 20.7 mph N/A   Mostly Cloudy
12:53 PM 84.2 °F 85.0 °F 62.6 °F 48% 30.05 in 10.0 mi SSW 17.3 mph 24.2 mph N/A   Overcast
1:14 PM 82.4 °F 83.4 °F 62.6 °F 51% 30.04 in 10.0 mi SSW 12.7 mph 21.9 mph N/A   Overcast
1:33 PM 82.4 °F 83.4 °F 62.6 °F 51% 30.04 in 10.0 mi SSW 10.4 mph 20.7 mph N/A   Mostly Cloudy
1:53 PM 82.4 °F 83.9 °F 64.4 °F 54% 30.03 in 10.0 mi SSW 10.4 mph 17.3 mph N/A   Mostly Cloudy
2:14 PM 82.4 °F 83.9 °F 64.4 °F 54% 30.03 in 10.0 mi SSW 8.1 mph 17.3 mph N/A   Overcast
2:33 PM 82.4 °F 83.9 °F 64.4 °F 54% 30.02 in 10.0 mi SSW 8.1 mph 19.6 mph N/A   Scattered Clouds
2:53 PM 84.2 °F 85.0 °F 62.6 °F 48% 30.01 in 10.0 mi SSW 12.7 mph 18.4 mph N/A   Mostly Cloudy
3:14 PM 82.4 °F 83.4 °F 62.6 °F 51% 30.01 in 10.0 mi SW 9.2 mph 21.9 mph N/A   Overcast
3:33 PM 77.0 °F - 64.4 °F 65% 30.03 in 10.0 mi West 18.4 mph 31.1 mph N/A   Overcast
3:53 PM 71.6 °F - 68.0 °F 88% 30.02 in 10.0 mi WSW 11.5 mph - 0.01 in   Overcast
4:14 PM 71.6 °F - 68.0 °F 88% 30.01 in 10.0 mi WSW 4.6 mph - N/A   Overcast
4:33 PM 73.4 °F - 68.0 °F 83% 30.00 in 10.0 mi Calm Calm - N/A   Overcast
4:53 PM 73.4 °F - 69.8 °F 88% 30.00 in 10.0 mi Calm Calm - N/A   Overcast
5:14 PM 73.4 °F - 69.8 °F 88% 30.01 in 5.0 mi WSW 9.2 mph - 0.01 in   Overcast
5:33 PM 69.8 °F - 66.2 °F 88% 30.01 in 0.8 mi SSW 10.4 mph 35.7 mph 0.35 in   Overcast
5:54 PM 69.8 °F - 68.0 °F 94% 30.02 in 7.0 mi SSW 10.4 mph 20.7 mph 0.36 in   Mostly Cloudy
6:13 PM 69.8 °F - 68.0 °F 94% 30.03 in 2.5 mi SSW 11.5 mph 17.3 mph 0.03 in   Overcast
6:33 PM 69.8 °F - 68.0 °F 94% 30.02 in 5.0 mi SSW 8.1 mph 17.3 mph 0.04 in   Overcast
6:54 PM 69.8 °F - 68.0 °F 94% 30.02 in 10.0 mi South 8.1 mph - 0.04 in   Overcast
7:13 PM 69.8 °F - 68.0 °F 94% 30.01 in 10.0 mi SSW 5.8 mph - N/A   Overcast
7:33 PM 71.6 °F - 69.8 °F 94% 30.00 in 10.0 mi South 6.9 mph - N/A   Mostly Cloudy
7:54 PM 71.6 °F - 69.8 °F 94% 30.00 in 10.0 mi SSW 4.6 mph - N/A   Scattered Clouds
8:13 PM 71.6 °F - 69.8 °F 94% 30.00 in 10.0 mi SSW 6.9 mph - N/A   Clear
8:33 PM 71.6 °F - 68.0 °F 88% 29.99 in 10.0 mi SSW 5.8 mph - N/A   Clear
8:54 PM 69.8 °F - 68.0 °F 94% 29.99 in 10.0 mi South 4.6 mph - N/A   Clear
9:13 PM 69.8 °F - 68.0 °F 94% 29.98 in 10.0 mi SSE 5.8 mph - N/A   Clear
9:33 PM 69.8 °F - 68.0 °F 94% 29.98 in 10.0 mi South 4.6 mph - N/A   Clear
9:54 PM 69.8 °F - 68.0 °F 94% 29.98 in 10.0 mi SSE 3.5 mph - N/A   Clear
10:13 PM 69.8 °F - 68.0 °F 94% 29.98 in 10.0 mi Calm Calm - N/A   Clear
10:33 PM 68.0 °F - 68.0 °F 100% 29.98 in 10.0 mi Calm Calm - N/A   Clear
10:54 PM 68.0 °F - 68.0 °F 100% 29.99 in 10.0 mi Calm Calm - N/A   Clear
11:13 PM 68.0 °F - 68.0 °F 100% 30.00 in 7.0 mi Calm Calm - N/A   Clear
11:33 PM 68.0 °F - 68.0 °F 100% 30.00 in 7.0 mi Calm Calm - N/A   Clear
11:54 PM 68.0 °F - 68.0 °F 100% 30.00 in 10.0 mi Calm Calm - N/A   Clear